This is the latest recevied weather packets stored in our database for station/object WA6OOO. If no packets are shown the sender has not sent any weather packets the latest 10 day(s).
| Time | Temp. | Humidity | Pressure | Rain* | Wind** | Luminosity | Snow |
|---|---|---|---|---|---|---|---|
| 1788541372 | 22.78° C | 65% | 1017.4 hPa | 0 mm | - | 461 W/m² | - |
| 1788541070 | 22.78° C | 68% | 1017.1 hPa | 0 mm | - | 439 W/m² | - |
| 1788540764 | 22.78° C | 68% | 1017.3 hPa | 0 mm | - | 439 W/m² | - |
| 1788540459 | 22.22° C | 70% | 1017.3 hPa | 0 mm | - | 374 W/m² | - |
| 1788540154 | 22.22° C | 70% | 1017.3 hPa | 0 mm | - | 374 W/m² | - |
| 1788539850 | 22.22° C | 70% | 1017.2 hPa | 0 mm | - | 374 W/m² | - |
| 1788539545 | 22.22° C | 70% | 1017.5 hPa | 0 mm | - | 374 W/m² | - |
| 1788539244 | 21.11° C | 73% | 1017.3 hPa | 0 mm | - | 250 W/m² | - |
| 1788538940 | 21.11° C | 73% | 1017.2 hPa | 0 mm | - | 250 W/m² | - |
| 1788538635 | 21.11° C | 73% | 1017.3 hPa | 0 mm | - | 250 W/m² | - |
| 1788538330 | 21.11° C | 73% | 1017.3 hPa | 0 mm | - | 250 W/m² | - |
| 1788538026 | 21.11° C | 73% | 1017.2 hPa | 0 mm | - | 250 W/m² | - |
| 1788537721 | 21.11° C | 73% | 1017.1 hPa | 0 mm | - | 250 W/m² | - |
| 1788537421 | 21.11° C | 73% | 1017.2 hPa | 0 mm | - | 250 W/m² | - |
| 1788537120 | 21.11° C | 73% | 1017 hPa | 0 mm | - | 250 W/m² | - |
| 1788536819 | 21.11° C | 73% | 1017.1 hPa | 0 mm | - | 57 W/m² | - |
| 1788536519 | 21.11° C | 74% | 1017.1 hPa | 0 mm | - | 237 W/m² | - |
| 1788536214 | 21.11° C | 74% | 1016.9 hPa | 0 mm | - | 220 W/m² | - |
| 1788535909 | 20.56° C | 76% | 1016.9 hPa | 0 mm | - | 206 W/m² | - |
| 1788535606 | 20.56° C | 76% | 1016.8 hPa | 0 mm | - | 182 W/m² | - |
| 1788535302 | 20.56° C | 76% | 1016.8 hPa | 0 mm | - | 130 W/m² | - |
| 1788535002 | 20.56° C | 76% | 1017.1 hPa | 0 mm | - | 53 W/m² | - |
| 1788534700 | 20.56° C | 76% | 1016.9 hPa | 0 mm | - | 152 W/m² | - |
| 1788534396 | 20° C | 77% | 1016.7 hPa | 0 mm | - | 43 W/m² | - |
| 1788534092 | 20° C | 78% | 1016.6 hPa | 0 mm | - | 41 W/m² | - |
* Rain latest hour (hover to see other rain measurements)
** Current wind speed in m/s (hover to see current wind gust speed)